This is the latest recevied weather packets stored in our database for station/object W5CMS-13. If no packets are shown the sender has not sent any weather packets the latest 10 day(s).
| Time | Temp. | Humidity | Pressure | Rain* | Wind** | Luminosity | Snow |
|---|---|---|---|---|---|---|---|
| 1788436518 | 25° C | 89% | 1012.4 hPa | 0 mm | - | - | - |
| 1788435917 | 25° C | 89% | 1012.2 hPa | 0 mm | - | - | - |
| 1788435317 | 25° C | 90% | 1012.4 hPa | 0 mm | - | - | - |
| 1788434717 | 25° C | 90% | 1012.4 hPa | 0 mm | - | - | - |
| 1788434117 | 25° C | 90% | 1012.5 hPa | 0 mm | - | - | - |
| 1788433517 | 25° C | 90% | 1012.6 hPa | 0 mm | - | - | - |
| 1788432917 | 25° C | 89% | 1012.4 hPa | 0 mm | - | - | - |
| 1788432317 | 25.56° C | 88% | 1012.2 hPa | 0 mm | - | - | - |
| 1788431717 | 25.56° C | 87% | 1012.2 hPa | 0 mm | - | - | - |
| 1788431117 | 26.11° C | 86% | 1012 hPa | 0 mm | - | - | - |
| 1788430517 | 26.11° C | 86% | 1012 hPa | 0 mm | - | - | - |
| 1788429917 | 25.56° C | 87% | 1011.8 hPa | 0 mm | - | - | - |
| 1788429317 | 25.56° C | 89% | 1012 hPa | 0 mm | - | - | - |
| 1788428717 | 25° C | 90% | 1012.1 hPa | 0 mm | - | - | - |
| 1788428117 | 25° C | 92% | 1012.1 hPa | 0 mm | - | - | - |
| 1788427517 | 25° C | 92% | 1012.2 hPa | 0 mm | - | - | - |
| 1788426918 | 25° C | 93% | 1012.2 hPa | 0 mm | - | - | - |
| 1788426317 | 24.44° C | 93% | 1012.1 hPa | 0 mm | - | - | - |
| 1788425718 | 24.44° C | 94% | 1012 hPa | 0 mm | - | - | - |
| 1788425117 | 24.44° C | 93% | 1011.9 hPa | 0 mm | - | - | - |
| 1788424517 | 25° C | 93% | 1012 hPa | 0 mm | - | - | - |
| 1788423917 | 25° C | 92% | 1012 hPa | 0 mm | - | - | - |
| 1788423317 | 25.56° C | 89% | 1012 hPa | 0 mm | - | - | - |
| 1788422717 | 25.56° C | 87% | 1012 hPa | 0 mm | - | - | - |
| 1788422117 | 26.11° C | 85% | 1011.9 hPa | 0 mm | - | - | - |
* Rain latest hour (hover to see other rain measurements)
** Current wind speed in m/s (hover to see current wind gust speed)